This is the latest recevied weather packets stored in our database for station/object KB1RMA-13. If no packets are shown the sender has not sent any weather packets the latest 1 day(s).
| Time | Temp. | Humidity | Pressure | Rain* | Wind** | Luminosity | Snow |
|---|---|---|---|---|---|---|---|
| 1778029454 | 20° C | 58% | 1007.7 hPa | 0 mm | 4.47 m/s, 219° | 0 W/m² | - |
| 1778029150 | 20° C | 58% | 1007.7 hPa | 0 mm | 9.39 m/s, 221° | 0 W/m² | - |
| 1778028848 | 20° C | 57% | 1007.6 hPa | 0 mm | 7.6 m/s, 234° | 0 W/m² | - |
| 1778028542 | 20° C | 57% | 1007.5 hPa | 0 mm | 5.81 m/s, 247° | 0 W/m² | - |
| 1778028241 | 20° C | 57% | 1007.1 hPa | 0 mm | 4.47 m/s, 235° | 0 W/m² | - |
| 1778027937 | 20° C | 56% | 1007.1 hPa | 0 mm | 4.02 m/s, 210° | 0 W/m² | - |
| 1778027633 | 20.56° C | 56% | 1006.9 hPa | 0 mm | 4.02 m/s, 207° | 0 W/m² | - |
| 1778027329 | 20.56° C | 55% | 1007.1 hPa | 0 mm | 4.47 m/s, 202° | 0 W/m² | - |
| 1778027026 | 20.56° C | 55% | 1006.8 hPa | 0 mm | 4.47 m/s, 205° | 0 W/m² | - |
| 1778026721 | 21.11° C | 54% | 1006.7 hPa | 0 mm | 5.36 m/s, 208° | 0 W/m² | - |
| 1778026419 | 21.11° C | 54% | 1006.4 hPa | 0 mm | 4.92 m/s, 226° | 0 W/m² | - |
| 1778026116 | 21.11° C | 53% | 1006.7 hPa | 0 mm | 5.36 m/s, 195° | 0 W/m² | - |
| 1778025814 | 21.67° C | 52% | 1006.2 hPa | 0 mm | 6.71 m/s, 186° | 0 W/m² | - |
| 1778025510 | 21.67° C | 52% | 1006.4 hPa | 0 mm | 4.92 m/s, 200° | 1 W/m² | - |
| 1778025207 | 21.67° C | 52% | 1006.2 hPa | 0 mm | 7.15 m/s, 225° | 1 W/m² | - |
| 1778024904 | 21.67° C | 51% | 1006 hPa | 0 mm | 6.71 m/s, 219° | 3 W/m² | - |
| 1778024602 | 22.22° C | 51% | 1006.4 hPa | 0 mm | 6.26 m/s, 197° | 4 W/m² | - |
| 1778024299 | 22.22° C | 51% | 1006 hPa | 0 mm | 2.68 m/s, 225° | 7 W/m² | - |
| 1778023997 | 22.22° C | 50% | 1006.2 hPa | 0 mm | 3.58 m/s, 207° | 11 W/m² | - |
| 1778023694 | 22.78° C | 50% | 1006 hPa | 0 mm | 3.58 m/s, 212° | 14 W/m² | - |
| 1778023391 | 22.78° C | 50% | 1006 hPa | 0 mm | 4.02 m/s, 227° | 19 W/m² | - |
| 1778023088 | 22.78° C | 49% | 1005.7 hPa | 0 mm | 10.28 m/s, 195° | 24 W/m² | - |
| 1778022786 | 22.78° C | 50% | 1005.8 hPa | 0 mm | 4.47 m/s, 194° | 29 W/m² | - |
| 1778022484 | 22.78° C | 49% | 1005.7 hPa | 0 mm | 5.36 m/s, 209° | 39 W/m² | - |
| 1778022180 | 23.33° C | 49% | 1005.7 hPa | 0 mm | 3.58 m/s, 188° | 45 W/m² | - |
* Rain latest hour (hover to see other rain measurements)
** Current wind speed in m/s (hover to see current wind gust speed)